Weather History for Rogers, AR

Change the Weather History Date:

Sunday, August 18, 2013

  Actual Average Record
Temperature  
Mean Temperature 71 °F -  
Max Temperature 81 °F 85 °F 98 °F (2003)
Min Temperature 61 °F 65 °F 60 °F (2008)
Cooling Degree Days 6    
Growing Degree Days 21 (Base 50)    
Moisture  
Dew Point 61 °F    
Average Humidity 73    
Maximum Humidity 94    
Minimum Humidity 42    
Precipitation  
Precipitation 0.00 in - - ()
Sea Level Pressure  
Sea Level Pressure 30.11 in    
Wind  
Wind Speed 5 mph (East)    
Max Wind Speed 9 mph    
Max Gust Speed -    
Visibility 9 miles    
Events      
Averages and records for this station are not official NWS values.
T = Trace of Precipitation, MM = Missing Value Source: NWS Daily Summary

Daily Weather History Graph

Daily Weather History Graph

Search for Another Location

Airport:

Trip Planner

Search our weather history database for the weather conditions in past years. The results will help you decide how hot, cold, wet, or windy it might be!

Date:

Astronomy

Aug. 18, 2013 Rise Set
Actual Time 6:36 AM CDT 8:02 PM CDT
Civil Twilight 6:09 AM CDT 8:29 PM CDT
Nautical Twilight 5:37 AM CDT 9:02 PM CDT
Astronomical Twilight 5:03 AM CDT 9:36 PM CDT
Moon 6:07 PM CDT (8/18) 3:49 AM CDT (8/18)
Length of Visible Light 14h 20m
Length of Day
13h 25m
Waxing Gibbous, 92% of the Moon is Illuminated
Aug 18
Waxing Gibbous
Aug 20
Full
Aug 28
Last Quarter
Sep 5
New
Sep 12
First Quarter

Hourly Weather History & Observations

Time (CDT) Temp. Heat Index Dew Point Humidity Pressure Visibility Wind Dir Wind Speed Gust Speed Precip Events Conditions
12:57 AM 64.9 °F - 60.1 °F 84% 30.11 in 10.0 mi East 5.8 mph - N/A   Clear
1:57 AM 63.0 °F - 60.1 °F 90% 30.11 in 9.0 mi East 4.6 mph - N/A   Clear
2:57 AM 61.0 °F - 59.0 °F 93% 30.11 in 6.0 mi Calm Calm - N/A   Clear
3:57 AM 61.0 °F - 59.0 °F 93% 30.11 in 5.0 mi NE 3.5 mph - N/A   Clear
4:57 AM 64.0 °F - 61.0 °F 90% 30.10 in 7.0 mi East 6.9 mph - N/A   Clear
5:57 AM 64.0 °F - 61.0 °F 90% 30.11 in 7.0 mi East 8.1 mph - N/A   Clear
6:57 AM 64.0 °F - 62.1 °F 93% 30.13 in 3.0 mi East 6.9 mph - N/A   Clear
7:30 AM 64.4 °F - 62.6 °F 94% 30.16 in 3.0 mi East 3.5 mph - N/A   Partly Cloudy
7:57 AM 66.0 °F - 63.0 °F 90% 30.14 in 4.0 mi Calm Calm - N/A   Partly Cloudy
8:57 AM 70.0 °F - 64.0 °F 81% 30.15 in 10.0 mi East 4.6 mph - N/A   Clear
9:57 AM 73.9 °F - 64.0 °F 71% 30.15 in 10.0 mi East 5.8 mph - N/A   Clear
10:57 AM 75.9 °F - 63.0 °F 64% 30.15 in 10.0 mi ESE 3.5 mph - N/A   Clear
11:57 AM 77.0 °F - 62.1 °F 60% 30.15 in 10.0 mi ESE 8.1 mph - N/A   Mostly Cloudy
12:57 PM 78.1 °F - 62.1 °F 58% 30.13 in 10.0 mi ESE 3.5 mph - N/A   Scattered Clouds
1:57 PM 79.0 °F - 61.0 °F 54% 30.12 in 10.0 mi East 5.8 mph - N/A   Scattered Clouds
2:57 PM 80.1 °F 80.6 °F 57.9 °F 47% 30.10 in 10.0 mi East 9.2 mph - N/A   Clear
3:57 PM 81.0 °F 80.8 °F 55.9 °F 42% 30.09 in 10.0 mi Variable 4.6 mph - N/A   Clear
4:57 PM 80.1 °F 80.6 °F 57.9 °F 47% 30.08 in 10.0 mi ENE 4.6 mph - N/A   Clear
5:57 PM 80.1 °F 80.7 °F 59.0 °F 48% 30.07 in 10.0 mi East 5.8 mph - N/A   Clear
6:57 PM 79.0 °F - 61.0 °F 54% 30.07 in 10.0 mi East 4.6 mph - N/A   Clear
7:57 PM 77.0 °F - 62.1 °F 60% 30.07 in 10.0 mi East 4.6 mph - N/A   Clear
8:57 PM 70.0 °F - 64.0 °F 81% 30.08 in 10.0 mi East 3.5 mph - N/A   Clear
9:57 PM 72.0 °F - 64.0 °F 76% 30.09 in 10.0 mi East 4.6 mph - N/A   Clear
10:57 PM 70.0 °F - 64.0 °F 81% 30.10 in 10.0 mi East 5.8 mph - N/A   Clear
11:57 PM 69.1 °F - 64.0 °F 84% 30.11 in 10.0 mi ESE 4.6 mph - N/A   Clear